Time,TemperatureF,DewpointF,PressureIn,WindDirection,WindDirectionDegrees,WindSpeedMPH,WindSpeedGustMPH,Humidity,HourlyPrecipIn,Conditions,Clouds,dailyrainin,SoftwareType,DateUTC
2013-07-24 00:01:00,58.5,48.4,29.88,NW,306,4.0,8.0,69,0.00,,CLR,0.00,VWS V13.01,2013-07-24 04:01:00,
2013-07-24 00:06:00,58.2,48.1,29.89,NW,317,3.0,7.0,69,0.00,,CLR,0.00,VWS V13.01,2013-07-24 04:06:00,
2013-07-24 00:11:00,57.9,48.2,29.89,NNW,338,3.0,7.0,70,0.00,,CLR,0.00,VWS V13.01,2013-07-24 04:11:00,
2013-07-24 00:16:00,57.7,48.0,29.89,NNW,327,2.0,4.0,70,0.00,,CLR,0.00,VWS V13.01,2013-07-24 04:16:00,
2013-07-24 00:21:00,57.5,47.8,29.89,NW,325,3.0,5.0,70,0.00,,CLR,0.00,VWS V13.01,2013-07-24 04:21:00,
2013-07-24 00:26:00,57.3,48.0,29.89,NW,324,2.0,5.0,71,0.00,,CLR,0.00,VWS V13.01,2013-07-24 04:26:00,
2013-07-24 00:31:00,57.2,47.9,29.89,NW,323,4.0,5.0,71,0.00,,CLR,0.00,VWS V13.01,2013-07-24 04:31:00,
2013-07-24 00:36:00,56.9,48.0,29.90,NW,323,2.0,3.0,72,0.00,,CLR,0.00,VWS V13.01,2013-07-24 04:36:00,
2013-07-24 00:41:00,56.8,47.9,29.89,NNW,341,3.0,5.0,72,0.00,,CLR,0.00,VWS V13.01,2013-07-24 04:41:00,
2013-07-24 00:46:00,56.6,47.7,29.90,NW,304,2.0,5.0,72,0.00,,CLR,0.00,VWS V13.01,2013-07-24 04:46:00,
2013-07-24 00:51:00,56.4,47.9,29.90,NW,323,2.0,4.0,73,0.00,,CLR,0.00,VWS V13.01,2013-07-24 04:51:00,
2013-07-24 00:56:00,56.2,47.7,29.90,NW,326,2.0,4.0,73,0.00,,CLR,0.00,VWS V13.01,2013-07-24 04:56:00,
2013-07-24 01:01:00,56.0,47.5,29.90,NW,323,0.0,6.0,73,0.00,,CLR,0.00,VWS V13.01,2013-07-24 05:01:00,
2013-07-24 01:07:00,55.9,47.4,29.90,NW,321,0.0,4.0,73,0.00,,CLR,0.00,VWS V13.01,2013-07-24 05:07:00,
2013-07-24 01:12:00,55.8,47.7,29.90,NW,315,5.0,6.0,74,0.00,,CLR,0.00,VWS V13.01,2013-07-24 05:12:00,
2013-07-24 01:17:00,55.7,47.5,29.91,NW,319,0.0,6.0,74,0.00,,CLR,0.00,VWS V13.01,2013-07-24 05:17:00,
2013-07-24 01:22:00,55.7,47.5,29.91,NW,313,1.0,3.0,74,0.00,,CLR,0.00,VWS V13.01,2013-07-24 05:22:00,
2013-07-24 01:27:00,55.5,47.4,29.91,NW,315,3.0,4.0,74,0.00,,CLR,0.00,VWS V13.01,2013-07-24 05:27:00,
2013-07-24 01:32:00,55.4,47.6,29.91,NW,318,1.0,3.0,75,0.00,,CLR,0.00,VWS V13.01,2013-07-24 05:32:00,
2013-07-24 01:37:00,55.2,47.4,29.92,NW,313,2.0,4.0,75,0.00,,CLR,0.00,VWS V13.01,2013-07-24 05:37:00,
2013-07-24 01:42:00,55.0,47.6,29.92,NW,321,3.0,4.0,76,0.00,,CLR,0.00,VWS V13.01,2013-07-24 05:42:00,
2013-07-24 01:47:00,54.8,47.4,29.92,NW,321,1.0,4.0,76,0.00,,CLR,0.00,VWS V13.01,2013-07-24 05:47:00,
2013-07-24 01:52:00,54.7,47.3,29.92,NNW,330,1.0,4.0,76,0.00,,CLR,0.00,VWS V13.01,2013-07-24 05:52:00,
2013-07-24 01:57:00,54.5,47.5,29.92,NNW,330,1.0,2.0,77,0.00,,CLR,0.00,VWS V13.01,2013-07-24 05:57:00,
2013-07-24 02:02:00,54.4,47.3,29.92,NNW,330,0.0,2.0,77,0.00,,FEW039,0.00,VWS V13.01,2013-07-24 06:02:00,
2013-07-24 02:07:00,54.1,47.4,29.92,NNW,330,0.0,2.0,78,0.00,,FEW039,0.00,VWS V13.01,2013-07-24 06:07:00,
2013-07-24 02:12:00,53.9,47.2,29.92,NNW,330,2.0,2.0,78,0.00,,FEW039,0.00,VWS V13.01,2013-07-24 06:12:00,
2013-07-24 02:17:00,53.7,47.0,29.92,NW,312,2.0,3.0,78,0.00,,FEW039,0.00,VWS V13.01,2013-07-24 06:17:00,
2013-07-24 02:22:00,53.4,47.1,29.92,WNW,282,1.0,4.0,79,0.00,,FEW039,0.00,VWS V13.01,2013-07-24 06:22:00,
2013-07-24 02:27:00,53.3,47.0,29.92,WNW,294,0.0,3.0,79,0.00,,FEW039,0.00,VWS V13.01,2013-07-24 06:27:00,
2013-07-24 02:32:00,53.1,47.1,29.92,WNW,294,0.0,2.0,80,0.00,,FEW039,0.00,VWS V13.01,2013-07-24 06:32:00,
2013-07-24 02:37:00,52.9,46.9,29.92,WNW,299,1.0,2.0,80,0.00,,FEW039,0.00,VWS V13.01,2013-07-24 06:37:00,
2013-07-24 02:42:00,52.8,47.1,29.93,WNW,299,1.0,2.0,81,0.00,,FEW039,0.00,VWS V13.01,2013-07-24 06:42:00,
2013-07-24 02:47:00,52.6,46.9,29.92,WNW,298,2.0,2.0,81,0.00,,FEW039,0.00,VWS V13.01,2013-07-24 06:47:00,
2013-07-24 02:52:00,52.5,46.8,29.93,WNW,298,1.0,2.0,81,0.00,,FEW039,0.00,VWS V13.01,2013-07-24 06:52:00,
2013-07-24 02:57:00,52.4,47.1,29.93,WNW,298,1.0,1.0,82,0.00,,FEW039,0.00,VWS V13.01,2013-07-24 06:57:00,
2013-07-24 03:02:00,52.3,47.0,29.93,NW,312,1.0,3.0,82,0.00,,SCT039,0.00,VWS V13.01,2013-07-24 07:02:00,
2013-07-24 03:07:00,52.3,47.0,29.93,NW,312,1.0,3.0,82,0.00,,SCT039,0.00,VWS V13.01,2013-07-24 07:07:00,
2013-07-24 03:12:00,52.2,46.9,29.93,NW,312,0.0,2.0,82,0.00,,SCT039,0.00,VWS V13.01,2013-07-24 07:12:00,
2013-07-24 03:17:00,52.1,46.8,29.93,NW,312,0.0,1.0,82,0.00,,SCT039,0.00,VWS V13.01,2013-07-24 07:17:00,
2013-07-24 03:22:00,51.9,46.9,29.93,NW,312,1.0,2.0,83,0.00,,SCT039,0.00,VWS V13.01,2013-07-24 07:22:00,
2013-07-24 03:27:00,51.8,46.8,29.93,NW,312,0.0,2.0,83,0.00,,SCT039,0.00,VWS V13.01,2013-07-24 07:27:00,
2013-07-24 03:32:00,51.7,47.0,29.93,NW,312,1.0,2.0,84,0.00,,SCT039,0.00,VWS V13.01,2013-07-24 07:32:00,
2013-07-24 03:37:00,51.6,46.9,29.93,NW,312,1.0,2.0,84,0.00,,SCT039,0.00,VWS V13.01,2013-07-24 07:37:00,
2013-07-24 03:42:00,51.5,46.8,29.93,NW,313,0.0,2.0,84,0.00,,SCT039,0.00,VWS V13.01,2013-07-24 07:42:00,
2013-07-24 03:47:00,51.5,46.8,29.93,NW,315,0.0,3.0,84,0.00,,SCT039,0.00,VWS V13.01,2013-07-24 07:47:00,
2013-07-24 03:52:00,51.5,47.2,29.93,NW,323,1.0,3.0,85,0.00,,SCT039,0.00,VWS V13.01,2013-07-24 07:52:00,
2013-07-24 03:57:00,51.4,47.0,29.93,NNW,331,3.0,3.0,85,0.00,,SCT039,0.00,VWS V13.01,2013-07-24 07:57:00,
2013-07-24 04:02:00,51.4,47.0,29.93,NNW,330,1.0,2.0,85,0.00,,OVC035,0.00,VWS V13.01,2013-07-24 08:02:00,
2013-07-24 04:07:00,51.3,47.0,29.94,NNW,330,0.0,2.0,85,0.00,,OVC035,0.00,VWS V13.01,2013-07-24 08:07:00,
2013-07-24 04:12:00,51.3,47.3,29.94,NNW,327,2.0,3.0,86,0.00,,OVC035,0.00,VWS V13.01,2013-07-24 08:12:00,
2013-07-24 04:18:00,51.2,47.2,29.94,NNW,327,0.0,3.0,86,0.00,,OVC035,0.00,VWS V13.01,2013-07-24 08:18:00,
2013-07-24 04:23:00,51.1,47.1,29.94,NNW,327,0.0,2.0,86,0.00,,OVC035,0.00,VWS V13.01,2013-07-24 08:23:00,
2013-07-24 04:28:00,51.0,47.0,29.94,NNW,327,0.0,1.0,86,0.00,,OVC035,0.00,VWS V13.01,2013-07-24 08:28:00,
2013-07-24 04:33:00,50.9,47.2,29.94,NNW,327,0.0,2.0,87,0.00,,OVC035,0.00,VWS V13.01,2013-07-24 08:33:00,
2013-07-24 04:38:00,50.8,47.1,29.94,WNW,293,0.0,2.0,87,0.00,,OVC035,0.00,VWS V13.01,2013-07-24 08:38:00,
2013-07-24 04:43:00,50.8,47.1,29.94,NW,306,0.0,3.0,87,0.00,,OVC035,0.00,VWS V13.01,2013-07-24 08:43:00,
2013-07-24 04:48:00,50.8,47.1,29.94,NNW,346,1.0,4.0,87,0.00,,OVC035,0.00,VWS V13.01,2013-07-24 08:48:00,
2013-07-24 04:53:00,50.8,47.1,29.95,North,350,0.0,2.0,87,0.00,,OVC035,0.00,VWS V13.01,2013-07-24 08:53:00,
2013-07-24 04:58:00,50.7,47.0,29.94,NNW,347,0.0,3.0,87,0.00,,OVC035,0.00,VWS V13.01,2013-07-24 08:58:00,
2013-07-24 05:03:00,50.6,46.9,29.94,NNW,331,1.0,2.0,87,0.00,,CLR,0.00,VWS V13.01,2013-07-24 09:03:00,
2013-07-24 05:08:00,50.6,46.9,29.95,NNW,332,0.0,2.0,87,0.00,,CLR,0.00,VWS V13.01,2013-07-24 09:08:00,
2013-07-24 05:13:00,50.5,47.1,29.95,NE,52,0.0,2.0,88,0.00,,CLR,0.00,VWS V13.01,2013-07-24 09:13:00,
2013-07-24 05:18:00,50.4,47.0,29.95,NE,50,1.0,1.0,88,0.00,,CLR,0.00,VWS V13.01,2013-07-24 09:18:00,
2013-07-24 05:23:00,50.4,47.0,29.95,North,355,0.0,3.0,88,0.00,,CLR,0.00,VWS V13.01,2013-07-24 09:23:00,
2013-07-24 05:28:00,50.3,46.9,29.95,North,355,0.0,2.0,88,0.00,,CLR,0.00,VWS V13.01,2013-07-24 09:28:00,
2013-07-24 05:33:00,50.3,46.9,29.95,North,355,0.0,2.0,88,0.00,,CLR,0.00,VWS V13.01,2013-07-24 09:33:00,
2013-07-24 05:38:00,50.2,46.8,29.96,North,355,0.0,1.0,88,0.00,,CLR,0.00,VWS V13.01,2013-07-24 09:38:00,
2013-07-24 05:43:00,50.1,46.7,29.96,North,355,0.0,3.0,88,0.00,,CLR,0.00,VWS V13.01,2013-07-24 09:43:00,
2013-07-24 05:48:00,50.0,46.6,29.96,North,351,0.0,2.0,88,0.00,,CLR,0.00,VWS V13.01,2013-07-24 09:48:00,
2013-07-24 05:53:00,49.9,46.5,29.96,North,355,0.0,2.0,88,0.00,,CLR,0.00,VWS V13.01,2013-07-24 09:53:00,
2013-07-24 05:58:00,49.9,46.5,29.96,North,351,1.0,2.0,88,0.00,,CLR,0.00,VWS V13.01,2013-07-24 09:58:00,
2013-07-24 06:03:00,49.8,46.4,29.96,NNE,13,2.0,2.0,88,0.00,,CLR,0.00,VWS V13.01,2013-07-24 10:03:00,
2013-07-24 06:08:00,49.7,46.3,29.97,North,355,1.0,2.0,88,0.00,,CLR,0.00,VWS V13.01,2013-07-24 10:08:00,
2013-07-24 06:13:00,49.7,46.3,29.97,North,355,1.0,1.0,88,0.00,,CLR,0.00,VWS V13.01,2013-07-24 10:13:00,
2013-07-24 06:18:00,49.7,46.3,29.97,NNE,15,0.0,4.0,88,0.00,,CLR,0.00,VWS V13.01,2013-07-24 10:18:00,
2013-07-24 06:23:00,49.7,46.0,29.98,NNE,17,1.0,2.0,87,0.00,,CLR,0.00,VWS V13.01,2013-07-24 10:23:00,
2013-07-24 06:28:00,49.7,46.0,29.97,NNE,17,0.0,1.0,87,0.00,,CLR,0.00,VWS V13.01,2013-07-24 10:28:00,
2013-07-24 06:33:00,49.7,46.0,29.97,North,5,0.0,2.0,87,0.00,,CLR,0.00,VWS V13.01,2013-07-24 10:33:00,
2013-07-24 06:38:00,49.7,46.0,29.98,North,5,0.0,2.0,87,0.00,,CLR,0.00,VWS V13.01,2013-07-24 10:38:00,
2013-07-24 06:43:00,49.8,46.1,29.98,North,5,0.0,2.0,87,0.00,,CLR,0.00,VWS V13.01,2013-07-24 10:43:00,
2013-07-24 06:48:00,49.8,46.1,29.98,North,5,1.0,1.0,87,0.00,,CLR,0.00,VWS V13.01,2013-07-24 10:48:00,
2013-07-24 06:54:00,49.9,46.2,29.98,North,5,0.0,2.0,87,0.00,,CLR,0.00,VWS V13.01,2013-07-24 10:54:00,
2013-07-24 06:59:00,50.0,46.0,29.99,North,360,1.0,2.0,86,0.00,,CLR,0.00,VWS V13.01,2013-07-24 10:59:00,
2013-07-24 07:04:00,50.2,46.2,29.99,North,360,2.0,2.0,86,0.00,,CLR,0.00,VWS V13.01,2013-07-24 11:04:00,
2013-07-24 07:09:00,50.3,46.3,29.99,NNW,339,1.0,3.0,86,0.00,,CLR,0.00,VWS V13.01,2013-07-24 11:09:00,
2013-07-24 07:14:00,50.6,46.6,29.99,NW,326,1.0,3.0,86,0.00,,CLR,0.00,VWS V13.01,2013-07-24 11:14:00,
2013-07-24 07:19:00,50.8,46.5,30.00,NNW,342,0.0,3.0,85,0.00,,CLR,0.00,VWS V13.01,2013-07-24 11:19:00,
2013-07-24 07:24:00,50.9,46.6,30.00,North,349,2.0,4.0,85,0.00,,CLR,0.00,VWS V13.01,2013-07-24 11:24:00,
2013-07-24 07:29:00,51.1,46.8,30.00,NNW,331,1.0,3.0,85,0.00,,CLR,0.00,VWS V13.01,2013-07-24 11:29:00,
2013-07-24 07:34:00,51.3,46.6,30.00,NW,322,0.0,5.0,84,0.00,,CLR,0.00,VWS V13.01,2013-07-24 11:34:00,
2013-07-24 07:39:00,51.5,46.5,30.00,NW,324,1.0,3.0,83,0.00,,CLR,0.00,VWS V13.01,2013-07-24 11:39:00,
2013-07-24 07:44:00,51.7,46.7,30.00,NNW,348,0.0,3.0,83,0.00,,CLR,0.00,VWS V13.01,2013-07-24 11:44:00,
2013-07-24 07:49:00,52.0,47.0,30.00,NNW,341,1.0,2.0,83,0.00,,CLR,0.00,VWS V13.01,2013-07-24 11:49:00,
2013-07-24 07:54:00,52.4,47.4,30.00,NNW,329,0.0,3.0,83,0.00,,CLR,0.00,VWS V13.01,2013-07-24 11:54:00,
2013-07-24 07:59:00,53.0,47.3,30.01,NW,318,2.0,4.0,81,0.00,,CLR,0.00,VWS V13.01,2013-07-24 11:59:00,
2013-07-24 08:04:00,53.7,48.0,30.01,NW,318,0.0,3.0,81,0.00,,CLR,0.00,VWS V13.01,2013-07-24 12:04:00,
2013-07-24 08:09:00,54.2,47.8,30.01,NNW,345,3.0,3.0,79,0.00,,CLR,0.00,VWS V13.01,2013-07-24 12:09:00,
2013-07-24 08:14:00,54.7,48.0,30.01,North,355,0.0,4.0,78,0.00,,CLR,0.00,VWS V13.01,2013-07-24 12:14:00,
2013-07-24 08:19:00,55.1,48.0,30.01,North,5,0.0,4.0,77,0.00,,CLR,0.00,VWS V13.01,2013-07-24 12:19:00,
2013-07-24 08:24:00,55.7,48.6,30.01,North,9,0.0,4.0,77,0.00,,CLR,0.00,VWS V13.01,2013-07-24 12:24:00,
2013-07-24 08:29:00,56.2,48.4,30.01,NW,317,3.0,4.0,75,0.00,,CLR,0.00,VWS V13.01,2013-07-24 12:29:00,
2013-07-24 08:34:00,56.4,48.6,30.01,NNW,330,1.0,3.0,75,0.00,,CLR,0.00,VWS V13.01,2013-07-24 12:34:00,
2013-07-24 08:39:00,56.8,48.6,30.01,NNW,332,1.0,3.0,74,0.00,,CLR,0.00,VWS V13.01,2013-07-24 12:39:00,
2013-07-24 08:44:00,57.1,49.3,30.01,North,9,1.0,5.0,75,0.00,,CLR,0.00,VWS V13.01,2013-07-24 12:44:00,
2013-07-24 08:49:00,57.7,49.5,30.01,NNW,346,1.0,3.0,74,0.00,,CLR,0.00,VWS V13.01,2013-07-24 12:49:00,
2013-07-24 08:54:00,58.3,49.0,30.02,NW,323,2.0,5.0,71,0.00,,CLR,0.00,VWS V13.01,2013-07-24 12:54:00,
2013-07-24 08:59:00,58.6,49.2,30.02,North,355,2.0,4.0,71,0.00,,CLR,0.00,VWS V13.01,2013-07-24 12:59:00,
2013-07-24 09:04:00,59.2,49.0,30.02,NE,46,1.0,4.0,69,0.00,,CLR,0.00,VWS V13.01,2013-07-24 13:04:00,
2013-07-24 09:09:00,59.7,49.1,30.02,NNW,333,0.0,5.0,68,0.00,,CLR,0.00,VWS V13.01,2013-07-24 13:09:00,
2013-07-24 09:14:00,60.3,49.3,30.02,NNW,335,1.0,3.0,67,0.00,,CLR,0.00,VWS V13.01,2013-07-24 13:14:00,
2013-07-24 09:19:00,60.9,49.1,30.02,NW,323,4.0,6.0,65,0.00,,CLR,0.00,VWS V13.01,2013-07-24 13:19:00,
2013-07-24 09:24:00,61.0,49.2,30.03,NNW,333,6.0,6.0,65,0.00,,CLR,0.00,VWS V13.01,2013-07-24 13:24:00,
2013-07-24 09:29:00,61.2,49.8,30.03,NW,322,0.0,6.0,66,0.00,,CLR,0.00,VWS V13.01,2013-07-24 13:29:00,
2013-07-24 09:34:00,61.4,49.5,30.03,NNW,333,3.0,4.0,65,0.00,,CLR,0.00,VWS V13.01,2013-07-24 13:34:00,
2013-07-24 09:39:00,61.8,49.5,30.03,NNW,329,4.0,4.0,64,0.00,,CLR,0.00,VWS V13.01,2013-07-24 13:39:00,
2013-07-24 09:45:00,61.8,49.5,30.03,NNE,20,1.0,5.0,64,0.00,,CLR,0.00,VWS V13.01,2013-07-24 13:45:00,
2013-07-24 09:50:00,62.2,49.9,30.03,North,355,1.0,6.0,64,0.00,,CLR,0.00,VWS V13.01,2013-07-24 13:50:00,
2013-07-24 09:55:00,62.8,49.6,30.04,NNW,348,2.0,4.0,62,0.00,,CLR,0.00,VWS V13.01,2013-07-24 13:55:00,
2013-07-24 10:00:00,63.1,49.5,30.03,North,351,1.0,5.0,61,0.00,,CLR,0.00,VWS V13.01,2013-07-24 14:00:00,
2013-07-24 10:05:00,63.5,49.8,30.04,NNE,13,0.0,3.0,61,0.00,,CLR,0.00,VWS V13.01,2013-07-24 14:05:00,
2013-07-24 10:10:00,64.0,49.4,30.04,WNW,303,3.0,4.0,59,0.00,,CLR,0.00,VWS V13.01,2013-07-24 14:10:00,
2013-07-24 10:15:00,64.1,49.5,30.04,NNW,340,1.0,5.0,59,0.00,,CLR,0.00,VWS V13.01,2013-07-24 14:15:00,
2013-07-24 10:20:00,64.2,49.6,30.04,NW,317,6.0,6.0,59,0.00,,CLR,0.00,VWS V13.01,2013-07-24 14:20:00,
2013-07-24 10:25:00,63.6,49.5,30.04,North,5,1.0,6.0,60,0.00,,CLR,0.00,VWS V13.01,2013-07-24 14:25:00,
2013-07-24 10:30:00,64.1,50.0,30.04,NW,325,0.0,4.0,60,0.00,,CLR,0.00,VWS V13.01,2013-07-24 14:30:00,
2013-07-24 10:35:00,64.8,49.7,30.04,North,355,3.0,5.0,58,0.00,,CLR,0.00,VWS V13.01,2013-07-24 14:35:00,
2013-07-24 10:40:00,65.2,49.6,30.04,NE,55,4.0,5.0,57,0.00,,CLR,0.00,VWS V13.01,2013-07-24 14:40:00,
2013-07-24 10:45:00,65.3,49.7,30.04,NE,55,3.0,3.0,57,0.00,,CLR,0.00,VWS V13.01,2013-07-24 14:45:00,
2013-07-24 10:50:00,65.0,49.9,30.04,NNE,15,0.0,5.0,58,0.00,,CLR,0.00,VWS V13.01,2013-07-24 14:50:00,
2013-07-24 10:55:00,65.1,50.4,30.05,South,171,1.0,3.0,59,0.00,,CLR,0.00,VWS V13.01,2013-07-24 14:55:00,
2013-07-24 11:00:00,65.3,49.7,30.05,North,5,1.0,5.0,57,0.00,,CLR,0.00,VWS V13.01,2013-07-24 15:00:00,
2013-07-24 11:05:00,65.5,50.3,30.04,NNW,335,0.0,3.0,58,0.00,,FEW040,0.00,VWS V13.01,2013-07-24 15:05:00,
2013-07-24 11:10:00,65.6,50.4,30.04,NE,53,1.0,3.0,58,0.00,,FEW040,0.00,VWS V13.01,2013-07-24 15:10:00,
2013-07-24 11:15:00,65.9,49.8,30.04,ENE,61,1.0,5.0,56,0.00,,FEW040,0.00,VWS V13.01,2013-07-24 15:15:00,
2013-07-24 11:20:00,65.6,49.5,30.04,NW,304,2.0,4.0,56,0.00,,FEW040,0.00,VWS V13.01,2013-07-24 15:20:00,
2013-07-24 11:25:00,64.8,49.2,30.05,NE,38,2.0,6.0,57,0.00,,FEW040,0.00,VWS V13.01,2013-07-24 15:25:00,
2013-07-24 11:30:00,65.1,49.5,30.05,NW,304,3.0,6.0,57,0.00,,FEW040,0.00,VWS V13.01,2013-07-24 15:30:00,
2013-07-24 11:35:00,65.3,49.7,30.04,NE,37,0.0,9.0,57,0.00,,FEW040,0.00,VWS V13.01,2013-07-24 15:35:00,
2013-07-24 11:40:00,65.9,50.2,30.04,SE,140,3.0,5.0,57,0.00,,FEW040,0.00,VWS V13.01,2013-07-24 15:40:00,
2013-07-24 11:45:00,65.9,50.2,30.04,ENE,65,1.0,3.0,57,0.00,,FEW040,0.00,VWS V13.01,2013-07-24 15:45:00,
2013-07-24 11:50:00,66.1,50.0,30.04,NW,323,0.0,3.0,56,0.00,,FEW040,0.00,VWS V13.01,2013-07-24 15:50:00,
2013-07-24 11:55:00,66.6,49.5,30.04,NE,51,0.0,3.0,54,0.00,,FEW040,0.00,VWS V13.01,2013-07-24 15:55:00,
2013-07-24 12:00:00,66.8,49.6,30.04,East,92,2.0,5.0,54,0.00,,FEW040,0.00,VWS V13.01,2013-07-24 16:00:00,
2013-07-24 12:05:00,67.4,50.2,30.04,East,82,0.0,5.0,54,0.00,,CLR,0.00,VWS V13.01,2013-07-24 16:05:00,
2013-07-24 12:10:00,68.2,50.9,30.04,SW,235,2.0,4.0,54,0.00,,CLR,0.00,VWS V13.01,2013-07-24 16:10:00,
2013-07-24 12:15:00,67.8,51.1,30.05,East,98,1.0,7.0,55,0.00,,CLR,0.00,VWS V13.01,2013-07-24 16:15:00,
2013-07-24 12:20:00,67.5,49.8,30.05,East,94,0.0,5.0,53,0.00,,CLR,0.00,VWS V13.01,2013-07-24 16:20:00,
2013-07-24 12:25:00,67.4,50.2,30.05,ENE,57,0.0,4.0,54,0.00,,CLR,0.00,VWS V13.01,2013-07-24 16:25:00,
2013-07-24 12:30:00,66.9,51.2,30.05,SE,140,2.0,4.0,57,0.00,,CLR,0.00,VWS V13.01,2013-07-24 16:30:00,
2013-07-24 12:35:00,65.9,53.0,30.05,ESE,102,7.0,10.0,63,0.00,,CLR,0.00,VWS V13.01,2013-07-24 16:35:00,
2013-07-24 12:40:00,65.0,53.0,30.05,ESE,105,8.0,10.0,65,0.00,,CLR,0.00,VWS V13.01,2013-07-24 16:40:00,
2013-07-24 12:45:00,64.5,53.7,30.05,East,97,8.0,10.0,68,0.00,,CLR,0.00,VWS V13.01,2013-07-24 16:45:00,
2013-07-24 12:50:00,63.9,52.7,30.05,ESE,121,5.0,10.0,67,0.00,,CLR,0.00,VWS V13.01,2013-07-24 16:50:00,
2013-07-24 12:55:00,64.5,53.7,30.05,ESE,115,10.0,10.0,68,0.00,,CLR,0.00,VWS V13.01,2013-07-24 16:55:00,
2013-07-24 13:00:00,65.0,55.0,30.05,ESE,115,10.0,12.0,70,0.00,,CLR,0.00,VWS V13.01,2013-07-24 17:00:00,
2013-07-24 13:05:00,65.3,54.9,30.05,ESE,117,7.0,11.0,69,0.00,,CLR,0.00,VWS V13.01,2013-07-24 17:05:00,
2013-07-24 13:10:00,65.5,55.1,30.05,SE,126,8.0,11.0,69,0.00,,CLR,0.00,VWS V13.01,2013-07-24 17:10:00,
2013-07-24 13:15:00,65.5,54.3,30.05,ESE,119,10.0,13.0,67,0.00,,CLR,0.00,VWS V13.01,2013-07-24 17:15:00,
2013-07-24 13:20:00,65.4,55.0,30.05,SE,126,9.0,13.0,69,0.00,,CLR,0.00,VWS V13.01,2013-07-24 17:20:00,
2013-07-24 13:25:00,65.4,55.0,30.05,ESE,105,11.0,13.0,69,0.00,,CLR,0.00,VWS V13.01,2013-07-24 17:25:00,
2013-07-24 13:30:00,65.3,55.3,30.05,ESE,109,11.0,13.0,70,0.00,,CLR,0.00,VWS V13.01,2013-07-24 17:30:00,
2013-07-24 13:36:00,65.0,55.0,30.05,SE,125,9.0,14.0,70,0.00,,CLR,0.00,VWS V13.01,2013-07-24 17:36:00,
2013-07-24 13:40:00,64.9,54.5,30.05,ESE,119,11.0,12.0,69,0.00,,CLR,0.00,VWS V13.01,2013-07-24 17:40:00,
2013-07-24 13:46:00,64.9,54.5,30.05,ESE,107,10.0,12.0,69,0.00,,CLR,0.00,VWS V13.01,2013-07-24 17:46:00,
2013-07-24 13:51:00,64.4,55.2,30.05,ESE,116,11.0,12.0,72,0.00,,CLR,0.00,VWS V13.01,2013-07-24 17:51:00,
2013-07-24 13:56:00,64.5,54.9,30.05,ESE,114,8.0,13.0,71,0.00,,CLR,0.00,VWS V13.01,2013-07-24 17:56:00,
2013-07-24 14:01:00,64.3,54.3,30.05,ESE,121,9.0,12.0,70,0.00,,CLR,0.00,VWS V13.01,2013-07-24 18:01:00,
2013-07-24 14:06:00,64.6,55.0,30.05,ESE,106,11.0,12.0,71,0.00,,CLR,0.00,VWS V13.01,2013-07-24 18:06:00,
2013-07-24 14:11:00,64.5,54.9,30.05,ESE,103,8.0,13.0,71,0.00,,CLR,0.00,VWS V13.01,2013-07-24 18:11:00,
2013-07-24 14:16:00,64.6,55.4,30.05,ESE,113,9.0,13.0,72,0.00,,CLR,0.00,VWS V13.01,2013-07-24 18:16:00,
2013-07-24 14:21:00,65.2,55.6,30.05,SE,127,6.0,10.0,71,0.00,,CLR,0.00,VWS V13.01,2013-07-24 18:21:00,
2013-07-24 14:26:00,65.3,54.1,30.05,SE,132,8.0,9.0,67,0.00,,CLR,0.00,VWS V13.01,2013-07-24 18:26:00,
2013-07-24 14:31:00,65.3,54.9,30.05,ESE,119,10.0,10.0,69,0.00,,CLR,0.00,VWS V13.01,2013-07-24 18:31:00,
2013-07-24 14:36:00,65.0,54.2,30.05,SE,126,8.0,10.0,68,0.00,,CLR,0.00,VWS V13.01,2013-07-24 18:36:00,
2013-07-24 14:41:00,64.8,53.2,30.05,ESE,118,8.0,11.0,66,0.00,,CLR,0.00,VWS V13.01,2013-07-24 18:41:00,
2013-07-24 14:46:00,64.5,54.1,30.05,ESE,109,5.0,10.0,69,0.00,,CLR,0.00,VWS V13.01,2013-07-24 18:46:00,
2013-07-24 14:51:00,64.4,54.0,30.05,ESE,116,7.0,10.0,69,0.00,,CLR,0.00,VWS V13.01,2013-07-24 18:51:00,
2013-07-24 14:56:00,64.5,53.3,30.05,ESE,108,8.0,10.0,67,0.00,,CLR,0.00,VWS V13.01,2013-07-24 18:56:00,
2013-07-24 15:01:00,64.5,54.1,30.05,ESE,104,9.0,10.0,69,0.00,,CLR,0.00,VWS V13.01,2013-07-24 19:01:00,
2013-07-24 15:06:00,64.0,53.2,30.05,East,99,6.0,11.0,68,0.00,,CLR,0.00,VWS V13.01,2013-07-24 19:06:00,
2013-07-24 15:11:00,64.0,52.8,30.05,East,97,9.0,11.0,67,0.00,,CLR,0.00,VWS V13.01,2013-07-24 19:11:00,
2013-07-24 15:16:00,64.3,54.3,30.05,ESE,111,8.0,10.0,70,0.00,,CLR,0.00,VWS V13.01,2013-07-24 19:16:00,
2013-07-24 15:21:00,64.3,53.5,30.05,East,98,9.0,11.0,68,0.00,,CLR,0.00,VWS V13.01,2013-07-24 19:21:00,
2013-07-24 15:26:00,64.3,53.5,30.05,ESE,111,8.0,11.0,68,0.00,,CLR,0.00,VWS V13.01,2013-07-24 19:26:00,
2013-07-24 15:31:00,64.8,53.2,30.05,ESE,109,5.0,10.0,66,0.00,,CLR,0.00,VWS V13.01,2013-07-24 19:31:00,
2013-07-24 15:36:00,65.0,52.1,30.05,East,92,6.0,10.0,63,0.00,,CLR,0.00,VWS V13.01,2013-07-24 19:36:00,
2013-07-24 15:41:00,65.1,53.5,30.05,ESE,116,7.0,10.0,66,0.00,,CLR,0.00,VWS V13.01,2013-07-24 19:41:00,
2013-07-24 15:46:00,65.6,54.4,30.05,ESE,113,9.0,10.0,67,0.00,,CLR,0.00,VWS V13.01,2013-07-24 19:46:00,
2013-07-24 15:51:00,65.8,54.5,30.05,ESE,117,5.0,11.0,67,0.00,,CLR,0.00,VWS V13.01,2013-07-24 19:51:00,
2013-07-24 15:56:00,66.1,53.6,30.05,ESE,109,5.0,9.0,64,0.00,,CLR,0.00,VWS V13.01,2013-07-24 19:56:00,
2013-07-24 16:01:00,66.0,54.7,30.05,SE,128,8.0,10.0,67,0.00,,CLR,0.00,VWS V13.01,2013-07-24 20:01:00,
2013-07-24 16:06:00,65.9,54.7,30.05,ESE,121,9.0,11.0,67,0.00,,CLR,0.00,VWS V13.01,2013-07-24 20:06:00,
2013-07-24 16:12:00,65.9,55.5,30.05,ESE,116,8.0,10.0,69,0.00,,CLR,0.00,VWS V13.01,2013-07-24 20:12:00,
2013-07-24 16:17:00,65.7,54.5,30.05,ESE,118,10.0,10.0,67,0.00,,CLR,0.00,VWS V13.01,2013-07-24 20:17:00,
2013-07-24 16:22:00,65.8,55.4,30.05,ESE,121,9.0,11.0,69,0.00,,CLR,0.00,VWS V13.01,2013-07-24 20:22:00,
2013-07-24 16:27:00,65.6,55.2,30.05,ESE,103,10.0,10.0,69,0.00,,CLR,0.00,VWS V13.01,2013-07-24 20:27:00,
2013-07-24 16:32:00,65.2,54.4,30.05,ESE,107,9.0,10.0,68,0.00,,CLR,0.00,VWS V13.01,2013-07-24 20:32:00,
2013-07-24 16:37:00,64.9,54.9,30.05,ESE,115,10.0,11.0,70,0.00,,CLR,0.00,VWS V13.01,2013-07-24 20:37:00,
2013-07-24 16:42:00,65.0,54.6,30.05,ESE,121,9.0,11.0,69,0.00,,CLR,0.00,VWS V13.01,2013-07-24 20:42:00,
2013-07-24 16:47:00,65.0,53.4,30.05,East,100,7.0,13.0,66,0.00,,CLR,0.00,VWS V13.01,2013-07-24 20:47:00,
2013-07-24 16:52:00,65.0,54.2,30.05,ESE,112,7.0,12.0,68,0.00,,CLR,0.00,VWS V13.01,2013-07-24 20:52:00,
2013-07-24 16:57:00,65.1,54.7,30.05,ESE,108,11.0,11.0,69,0.00,,CLR,0.00,VWS V13.01,2013-07-24 20:57:00,
2013-07-24 17:02:00,65.1,54.3,30.05,ESE,110,8.0,11.0,68,0.00,,CLR,0.00,VWS V13.01,2013-07-24 21:02:00,
2013-07-24 17:07:00,65.2,54.8,30.05,ESE,115,7.0,10.0,69,0.00,,CLR,0.00,VWS V13.01,2013-07-24 21:07:00,
2013-07-24 17:12:00,65.3,53.7,30.05,ESE,108,10.0,10.0,66,0.00,,CLR,0.00,VWS V13.01,2013-07-24 21:12:00,
2013-07-24 17:17:00,65.0,54.2,30.05,East,90,7.0,10.0,68,0.00,,CLR,0.00,VWS V13.01,2013-07-24 21:17:00,
2013-07-24 17:22:00,65.0,54.6,30.05,ESE,111,8.0,11.0,69,0.00,,CLR,0.00,VWS V13.01,2013-07-24 21:22:00,
2013-07-24 17:27:00,64.6,54.2,30.05,East,101,7.0,10.0,69,0.00,,CLR,0.00,VWS V13.01,2013-07-24 21:27:00,
2013-07-24 17:32:00,64.7,55.1,30.05,ESE,119,9.0,11.0,71,0.00,,CLR,0.00,VWS V13.01,2013-07-24 21:32:00,
2013-07-24 17:37:00,64.7,54.7,30.05,ESE,122,7.0,10.0,70,0.00,,CLR,0.00,VWS V13.01,2013-07-24 21:37:00,
2013-07-24 17:42:00,64.8,54.0,30.05,ESE,113,7.0,10.0,68,0.00,,CLR,0.00,VWS V13.01,2013-07-24 21:42:00,
2013-07-24 17:47:00,64.6,53.4,30.05,ESE,105,9.0,10.0,67,0.00,,CLR,0.00,VWS V13.01,2013-07-24 21:47:00,
2013-07-24 17:52:00,64.7,53.5,30.05,ESE,115,7.0,10.0,67,0.00,,CLR,0.00,VWS V13.01,2013-07-24 21:52:00,
2013-07-24 17:57:00,64.7,55.5,30.05,ESE,118,7.0,11.0,72,0.00,,CLR,0.00,VWS V13.01,2013-07-24 21:57:00,
2013-07-24 18:02:00,64.7,54.7,30.05,SE,132,7.0,11.0,70,0.00,,CLR,0.00,VWS V13.01,2013-07-24 22:02:00,
2013-07-24 18:07:00,64.5,53.3,30.05,ESE,119,7.0,10.0,67,0.00,,CLR,0.00,VWS V13.01,2013-07-24 22:07:00,
2013-07-24 18:12:00,64.3,53.5,30.05,ESE,115,7.0,9.0,68,0.00,,CLR,0.00,VWS V13.01,2013-07-24 22:12:00,
2013-07-24 18:17:00,64.4,53.2,30.05,ESE,103,5.0,10.0,67,0.00,,CLR,0.00,VWS V13.01,2013-07-24 22:17:00,
2013-07-24 18:22:00,64.4,53.6,30.05,ESE,106,8.0,9.0,68,0.00,,CLR,0.00,VWS V13.01,2013-07-24 22:22:00,
2013-07-24 18:27:00,64.2,54.2,30.05,ESE,119,5.0,9.0,70,0.00,,CLR,0.00,VWS V13.01,2013-07-24 22:27:00,
2013-07-24 18:32:00,64.5,54.5,30.05,ESE,110,7.0,9.0,70,0.00,,CLR,0.00,VWS V13.01,2013-07-24 22:32:00,
2013-07-24 18:37:00,64.6,55.0,30.05,ESE,113,7.0,9.0,71,0.00,,CLR,0.00,VWS V13.01,2013-07-24 22:37:00,
2013-07-24 18:42:00,64.5,52.9,30.05,East,98,7.0,9.0,66,0.00,,CLR,0.00,VWS V13.01,2013-07-24 22:42:00,
2013-07-24 18:47:00,64.4,54.0,30.05,ESE,105,9.0,9.0,69,0.00,,CLR,0.00,VWS V13.01,2013-07-24 22:47:00,
2013-07-24 18:52:00,64.4,54.8,30.05,ESE,119,5.0,9.0,71,0.00,,CLR,0.00,VWS V13.01,2013-07-24 22:52:00,
2013-07-24 18:57:00,64.4,54.4,30.05,East,100,8.0,8.0,70,0.00,,CLR,0.00,VWS V13.01,2013-07-24 22:57:00,
2013-07-24 19:02:00,64.2,53.0,30.05,ESE,107,7.0,9.0,67,0.00,,CLR,0.00,VWS V13.01,2013-07-24 23:02:00,
2013-07-24 19:07:00,64.3,53.9,30.05,ESE,106,5.0,8.0,69,0.00,,CLR,0.00,VWS V13.01,2013-07-24 23:07:00,
2013-07-24 19:12:00,64.2,53.4,30.05,ESE,110,7.0,9.0,68,0.00,,CLR,0.00,VWS V13.01,2013-07-24 23:12:00,
2013-07-24 19:17:00,64.1,54.1,30.05,East,98,7.0,8.0,70,0.00,,CLR,0.00,VWS V13.01,2013-07-24 23:17:00,
2013-07-24 19:22:00,64.2,54.2,30.05,East,86,5.0,8.0,70,0.00,,CLR,0.00,VWS V13.01,2013-07-24 23:22:00,
2013-07-24 19:27:00,64.3,53.5,30.05,East,98,5.0,7.0,68,0.00,,CLR,0.00,VWS V13.01,2013-07-24 23:27:00,
2013-07-24 19:32:00,64.1,53.3,30.04,East,101,6.0,7.0,68,0.00,,CLR,0.00,VWS V13.01,2013-07-24 23:32:00,
2013-07-24 19:37:00,63.9,52.3,30.05,ESE,105,3.0,7.0,66,0.00,,CLR,0.00,VWS V13.01,2013-07-24 23:37:00,
2013-07-24 19:42:00,64.0,52.0,30.05,East,99,6.0,7.0,65,0.00,,CLR,0.00,VWS V13.01,2013-07-24 23:42:00,
2013-07-24 19:47:00,64.0,53.6,30.05,ESE,105,4.0,7.0,69,0.00,,CLR,0.00,VWS V13.01,2013-07-24 23:47:00,
2013-07-24 19:52:00,63.8,53.8,30.05,East,97,5.0,7.0,70,0.00,,CLR,0.00,VWS V13.01,2013-07-24 23:52:00,
2013-07-24 19:57:00,69.7,51.8,30.05,WNW,303,0.0,6.0,53,0.00,,CLR,0.00,VWS V13.01,2013-07-24 23:57:00,
2013-07-24 20:02:00,69.9,52.0,30.05,West,272,0.0,1.0,53,0.00,,CLR,0.00,VWS V13.01,2013-07-25 00:02:00,
2013-07-24 20:07:00,69.6,51.7,30.05,WSW,248,0.0,3.0,53,0.00,,CLR,0.00,VWS V13.01,2013-07-25 00:07:00,
2013-07-24 20:12:00,69.2,52.4,30.05,WNW,294,0.0,2.0,55,0.00,,CLR,0.00,VWS V13.01,2013-07-25 00:12:00,
2013-07-24 20:17:00,69.6,52.2,30.05,WSW,241,0.0,1.0,54,0.00,,CLR,0.00,VWS V13.01,2013-07-25 00:17:00,
2013-07-24 20:22:00,69.9,52.5,30.05,SSW,205,0.0,1.0,54,0.00,,CLR,0.00,VWS V13.01,2013-07-25 00:22:00,
2013-07-24 20:27:00,69.3,52.0,30.05,WNW,290,0.0,1.0,54,0.00,,CLR,0.00,VWS V13.01,2013-07-25 00:27:00,
2013-07-24 20:32:00,68.1,52.3,30.05,West,267,0.0,1.0,57,0.00,,CLR,0.00,VWS V13.01,2013-07-25 00:32:00,
2013-07-24 20:37:00,67.3,52.0,30.05,West,265,1.0,1.0,58,0.00,,CLR,0.00,VWS V13.01,2013-07-25 00:37:00,
2013-07-24 20:42:00,66.9,52.1,30.05,West,271,0.0,1.0,59,0.00,,CLR,0.00,VWS V13.01,2013-07-25 00:42:00,
2013-07-24 20:47:00,66.6,51.8,30.05,West,278,0.0,1.0,59,0.00,,CLR,0.00,VWS V13.01,2013-07-25 00:47:00,
2013-07-24 20:52:00,66.5,51.3,30.06,West,267,0.0,1.0,58,0.00,,CLR,0.00,VWS V13.01,2013-07-25 00:52:00,
2013-07-24 20:58:00,66.0,51.3,30.06,West,271,0.0,2.0,59,0.00,,CLR,0.00,VWS V13.01,2013-07-25 00:58:00,
2013-07-24 21:03:00,65.6,52.2,30.06,West,273,0.0,1.0,62,0.00,,CLR,0.00,VWS V13.01,2013-07-25 01:03:00,
2013-07-24 21:08:00,65.0,52.1,30.06,West,275,0.0,2.0,63,0.00,,CLR,0.00,VWS V13.01,2013-07-25 01:08:00,
2013-07-24 21:13:00,64.5,51.6,30.06,West,275,0.0,2.0,63,0.00,,CLR,0.00,VWS V13.01,2013-07-25 01:13:00,
2013-07-24 21:18:00,64.3,51.9,30.06,West,273,0.0,1.0,64,0.00,,CLR,0.00,VWS V13.01,2013-07-25 01:18:00,
2013-07-24 21:23:00,64.0,51.2,30.06,West,262,0.0,1.0,63,0.00,,CLR,0.00,VWS V13.01,2013-07-25 01:23:00,
2013-07-24 21:28:00,63.9,51.9,30.06,West,272,1.0,3.0,65,0.00,,CLR,0.00,VWS V13.01,2013-07-25 01:28:00,
2013-07-24 21:33:00,63.8,51.4,30.06,West,273,1.0,3.0,64,0.00,,CLR,0.00,VWS V13.01,2013-07-25 01:33:00,
2013-07-24 21:38:00,63.7,50.9,30.06,West,273,0.0,2.0,63,0.00,,CLR,0.00,VWS V13.01,2013-07-25 01:38:00,
2013-07-24 21:43:00,63.7,52.1,30.06,West,276,2.0,3.0,66,0.00,,CLR,0.00,VWS V13.01,2013-07-25 01:43:00,
2013-07-24 21:48:00,63.5,52.0,30.06,West,275,1.0,3.0,66,0.00,,CLR,0.00,VWS V13.01,2013-07-25 01:48:00,
2013-07-24 21:53:00,63.5,51.5,30.06,West,269,0.0,3.0,65,0.00,,CLR,0.00,VWS V13.01,2013-07-25 01:53:00,
2013-07-24 21:58:00,63.6,51.6,30.06,West,269,1.0,1.0,65,0.00,,CLR,0.00,VWS V13.01,2013-07-25 01:58:00,
2013-07-24 22:03:00,63.6,51.6,30.06,West,275,1.0,2.0,65,0.00,,CLR,0.00,VWS V13.01,2013-07-25 02:03:00,
2013-07-24 22:08:00,63.5,51.5,30.06,West,271,0.0,1.0,65,0.00,,CLR,0.00,VWS V13.01,2013-07-25 02:08:00,
2013-07-24 22:13:00,63.6,51.2,30.06,West,269,0.0,2.0,64,0.00,,CLR,0.00,VWS V13.01,2013-07-25 02:13:00,
2013-07-24 22:18:00,63.5,51.1,30.06,West,269,0.0,1.0,64,0.00,,CLR,0.00,VWS V13.01,2013-07-25 02:18:00,
2013-07-24 22:23:00,63.3,51.3,30.06,West,267,0.0,0.0,65,0.00,,CLR,0.00,VWS V13.01,2013-07-25 02:23:00,
2013-07-24 22:28:00,63.0,50.2,30.06,West,267,0.0,0.0,63,0.00,,CLR,0.00,VWS V13.01,2013-07-25 02:28:00,
2013-07-24 22:33:00,63.0,51.1,30.06,West,268,0.0,0.0,65,0.00,,CLR,0.00,VWS V13.01,2013-07-25 02:33:00,
2013-07-24 22:38:00,63.2,51.7,30.06,West,268,0.0,2.0,66,0.00,,CLR,0.00,VWS V13.01,2013-07-25 02:38:00,
2013-07-24 22:43:00,63.1,51.6,30.06,West,269,2.0,2.0,66,0.00,,CLR,0.00,VWS V13.01,2013-07-25 02:43:00,
2013-07-24 22:48:00,63.3,51.3,30.06,West,275,1.0,3.0,65,0.00,,CLR,0.00,VWS V13.01,2013-07-25 02:48:00,
2013-07-24 22:53:00,63.5,51.5,30.06,West,275,2.0,2.0,65,0.00,,CLR,0.00,VWS V13.01,2013-07-25 02:53:00,
2013-07-24 22:58:00,63.6,52.0,30.06,West,279,2.0,2.0,66,0.00,,CLR,0.00,VWS V13.01,2013-07-25 02:58:00,
2013-07-24 23:03:00,63.6,51.2,30.06,West,279,1.0,2.0,64,0.00,,CLR,0.00,VWS V13.01,2013-07-25 03:03:00,
2013-07-24 23:08:00,63.6,51.2,30.07,West,279,2.0,2.0,64,0.00,,CLR,0.00,VWS V13.01,2013-07-25 03:08:00,
2013-07-24 23:13:00,63.6,51.6,30.06,West,279,0.0,2.0,65,0.00,,CLR,0.00,VWS V13.01,2013-07-25 03:13:00,
2013-07-24 23:18:00,63.5,51.5,30.06,West,279,0.0,1.0,65,0.00,,CLR,0.00,VWS V13.01,2013-07-25 03:18:00,
2013-07-24 23:23:00,63.5,52.0,30.06,West,279,0.0,0.0,66,0.00,,CLR,0.00,VWS V13.01,2013-07-25 03:23:00,
2013-07-24 23:28:00,63.5,51.5,30.06,West,279,1.0,1.0,65,0.00,,CLR,0.00,VWS V13.01,2013-07-25 03:28:00,
2013-07-24 23:33:00,63.5,52.0,30.07,West,279,1.0,1.0,66,0.00,,CLR,0.00,VWS V13.01,2013-07-25 03:33:00,
2013-07-24 23:38:00,63.4,51.9,30.07,West,279,0.0,1.0,66,0.00,,CLR,0.00,VWS V13.01,2013-07-25 03:38:00,
2013-07-24 23:44:00,63.1,51.6,30.07,West,279,0.0,0.0,66,0.00,,CLR,0.00,VWS V13.01,2013-07-25 03:44:00,
2013-07-24 23:49:00,62.9,51.8,30.07,West,279,0.0,0.0,67,0.00,,CLR,0.00,VWS V13.01,2013-07-25 03:49:00,
2013-07-24 23:54:00,62.9,51.4,30.07,West,279,0.0,1.0,66,0.00,,CLR,0.00,VWS V13.01,2013-07-25 03:54:00,
2013-07-24 23:59:00,62.8,51.3,30.07,West,279,0.0,0.0,66,0.00,,CLR,0.00,VWS V13.01,2013-07-25 03:59:00,